Theta_e
338 335 336 335 338 343 346 347 346 344 343 342 341 340 339 339 337 336 334 332 330 328 328 329 329 326 326 330 334 335 336 337 336 336 336 336 336 336 334 334 335 333 331 329 328 327 326 327 332 335 337 337 333 331 330 330 332 332 332 333 336 337 335 334 334 335 335 336 337 336 335 332 331 332 331 330 329 328 328 328 327 328 330 330 330
336 336 336 334 337 340 344 346 347 345 344 343 341 340 339 339 338 336 335 332 331 328 327 329 330 328 326 327 330 331 333 333 332 332 333 334 333 332 332 333 335 333 331 330 328 327 327 327 332 336 337 337 335 333 331 331 331 332 331 333 336 335 335 334 334 336 337 337 337 335 333 330 329 331 332 331 329 328 327 327 326 328 330 330 330
334 336 335 335 336 339 342 344 346 347 346 344 342 341 339 339 338 337 336 334 331 329 327 328 330 330 328 326 326 328 330 331 332 332 333 332 331 331 333 336 337 337 334 331 328 327 327 329 333 336 336 336 336 335 334 332 331 332 330 331 334 334 334 333 333 336 336 336 335 334 332 332 331 331 331 330 328 327 326 327 328 329 329 329 329
334 336 335 336 336 337 338 341 345 347 347 345 343 342 341 339 338 338 337 335 331 329 328 328 331 330 330 329 327 328 329 331 333 333 334 332 330 333 336 338 338 338 338 333 329 326 325 329 334 336 336 335 335 334 334 332 330 331 329 330 333 333 332 332 332 333 334 333 333 333 333 333 333 332 331 330 328 328 328 327 328 329 329 329 329
334 336 335 336 335 335 335 338 343 346 347 345 344 343 342 340 339 338 337 335 332 330 328 330 331 332 331 330 329 329 329 330 332 334 335 333 333 335 337 337 338 338 338 337 333 327 324 329 334 336 336 334 334 333 333 331 330 328 328 329 331 331 331 332 331 332 333 332 332 331 331 331 331 332 332 331 330 330 329 329 329 328 329 329 329
336 336 336 335 334 334 335 336 340 346 346 345 345 343 342 341 339 338 338 336 332 330 329 330 332 333 332 332 332 333 332 331 332 334 337 336 337 338 338 338 339 340 338 338 335 327 326 330 334 336 335 334 334 333 333 330 329 328 326 327 328 329 329 329 329 330 330 330 330 330 330 330 332 332 332 330 328 329 329 329 329 329 329 328 328
337 337 336 334 334 335 335 336 339 344 346 345 345 344 343 342 340 339 338 336 333 330 329 330 333 334 334 334 334 335 335 334 334 336 339 340 340 340 340 340 339 340 338 338 335 327 330 332 333 336 335 335 335 335 333 330 329 329 328 327 328 328 327 326 326 327 326 328 330 330 330 331 331 331 331 330 329 329 329 329 329 329 329 328 327
338 338 335 334 335 335 336 337 338 342 345 346 345 344 344 343 342 339 338 337 333 331 330 330 334 334 333 334 335 336 336 335 336 337 339 340 339 340 340 340 340 340 339 338 334 326 331 333 331 334 335 336 336 335 333 332 332 332 332 332 330 329 329 327 326 326 326 328 330 330 329 330 331 331 332 332 330 328 328 329 329 328 327 327 327
339 339 335 334 334 335 336 336 338 341 343 345 345 345 344 344 342 340 339 338 335 332 331 331 333 335 334 334 335 336 336 335 336 337 339 338 338 339 338 338 338 339 339 337 335 323 326 332 329 333 336 336 336 335 334 333 333 334 334 334 333 331 330 329 327 326 326 327 330 331 331 332 332 332 333 332 330 327 328 329 328 327 327 326 326
341 338 336 335 333 334 335 336 338 340 342 343 345 345 345 345 343 342 341 339 336 333 331 331 333 335 334 334 335 336 335 335 337 338 338 338 336 336 335 335 336 338 338 337 335 323 320 327 326 331 336 336 336 335 333 332 333 334 335 335 335 335 332 330 328 326 327 327 329 331 332 332 332 333 332 331 329 324 324 326 326 327 327 324 325
341 339 336 334 334 335 335 337 338 340 341 342 343 344 345 346 344 343 341 340 337 334 333 331 333 334 334 335 336 336 335 335 337 339 338 337 335 334 333 333 335 336 337 337 335 326 319 323 325 329 333 334 334 332 331 332 333 334 335 335 334 335 334 331 328 327 328 328 329 329 330 330 331 332 331 330 326 322 324 327 327 328 327 322 324
342 339 337 337 336 336 335 337 338 339 340 341 342 343 345 345 345 343 342 341 337 333 333 333 334 335 335 335 337 336 334 335 338 339 337 336 334 334 332 332 333 334 335 336 335 329 321 324 327 329 330 331 331 331 331 331 333 333 333 331 331 333 334 332 329 328 328 328 328 329 329 329 329 330 331 330 326 325 328 329 328 327 326 323 324
342 340 339 339 338 336 335 336 336 337 339 340 342 343 344 343 344 344 342 342 338 334 334 334 335 336 336 336 337 337 334 335 338 338 336 335 335 334 333 334 334 333 333 335 336 332 325 324 327 328 330 330 330 330 330 330 330 329 327 326 329 333 333 333 330 329 328 327 328 328 329 329 329 331 330 328 327 328 329 328 326 326 326 324 325
342 341 340 339 339 339 336 335 335 336 337 339 342 344 345 343 344 344 342 342 339 336 336 335 336 336 336 337 337 337 335 335 337 338 336 334 334 334 334 334 333 330 331 333 335 333 329 325 324 324 327 328 328 328 327 327 324 323 323 326 331 333 333 333 331 329 328 328 328 328 328 329 330 331 331 329 329 330 329 327 326 326 326 325 325
342 341 340 339 340 340 338 336 334 335 337 338 342 344 345 344 344 344 343 342 339 337 337 336 336 337 336 337 337 336 336 335 337 338 337 335 334 334 333 333 332 329 330 332 334 334 332 328 325 323 323 322 321 321 321 320 319 321 323 326 332 334 333 333 332 330 328 329 329 327 326 328 330 330 330 330 330 329 328 327 326 326 326 325 324
341 340 339 338 338 339 339 338 336 335 335 337 342 344 345 345 345 344 343 342 339 338 338 337 337 337 336 336 336 336 336 336 338 338 337 336 335 334 333 332 331 329 329 330 332 333 332 330 328 325 322 317 316 316 316 317 320 324 323 325 331 334 333 333 332 330 329 329 328 326 325 327 329 330 330 330 329 329 328 327 325 325 324 323 323
341 340 338 337 337 338 338 338 337 336 335 338 341 344 345 345 345 344 343 342 339 339 339 337 337 337 336 336 337 336 336 337 338 338 337 336 335 334 333 332 331 328 328 328 329 331 332 331 329 327 323 316 314 315 316 320 322 323 324 326 329 333 333 332 332 331 329 327 326 326 326 327 329 330 330 330 329 328 327 326 325 325 324 323 323
341 339 338 337 336 336 335 336 336 336 336 337 341 344 344 344 344 343 343 342 340 340 339 337 337 337 336 336 336 336 336 337 338 338 337 336 336 334 333 332 330 327 326 326 326 327 329 331 330 328 325 318 313 315 319 323 323 322 325 329 329 331 333 332 332 332 329 327 327 326 325 326 328 329 330 329 328 327 327 327 326 325 324 324 324
341 339 338 338 337 335 334 333 334 335 336 335 339 342 343 343 343 343 343 341 340 340 340 338 337 337 336 335 335 336 337 337 337 337 337 336 335 333 333 332 329 327 325 325 325 325 325 328 330 328 326 322 316 319 323 323 322 322 325 331 330 329 332 332 332 332 330 329 328 327 326 326 326 328 329 328 328 327 327 327 326 325 324 323 323
342 340 339 338 337 336 334 333 333 334 335 333 335 340 342 342 342 342 342 342 340 340 340 339 338 337 336 336 335 336 337 337 337 336 335 334 333 332 332 332 330 328 326 326 325 324 323 324 326 329 327 324 321 322 324 322 321 322 325 331 331 330 331 332 332 332 331 329 328 327 327 326 325 328 329 328 328 328 327 326 326 324 322 322 322
343 341 340 338 337 336 334 334 334 333 334 333 332 337 340 342 343 342 342 341 340 340 340 339 339 338 336 336 336 337 337 337 337 336 334 334 332 332 331 332 332 330 327 327 326 324 322 322 322 325 328 326 323 323 322 322 322 321 326 331 331 331 331 332 332 331 330 328 328 327 327 326 326 327 328 327 326 326 327 326 326 323 321 322 323
342 341 340 339 338 337 336 335 335 334 333 332 332 335 338 341 342 341 341 340 340 341 340 339 339 339 337 336 336 336 336 336 336 335 333 333 333 332 332 332 333 331 328 327 326 324 323 323 320 321 327 327 323 323 322 322 322 321 326 330 331 332 331 332 332 331 330 329 328 327 326 327 326 326 325 325 324 324 325 326 325 323 322 322 323
341 341 340 340 339 338 337 336 336 335 333 331 333 335 337 339 340 340 340 340 341 340 340 339 339 338 338 336 336 335 335 334 334 333 332 332 332 331 332 332 332 330 330 328 325 325 324 324 323 323 326 327 324 323 323 322 321 320 325 330 331 332 332 332 332 330 330 328 327 327 326 327 326 326 324 325 326 323 322 326 325 323 323 321 321
341 340 341 340 340 339 338 338 337 337 334 333 333 334 335 336 338 337 337 340 341 340 340 339 338 338 338 337 337 335 334 334 334 333 332 332 331 332 332 332 331 329 329 329 326 325 325 325 326 325 326 327 325 322 321 321 320 320 323 329 330 331 332 331 331 330 329 328 327 327 327 327 327 326 325 326 328 324 322 326 325 324 323 320 320
340 340 341 340 340 340 340 339 339 337 334 333 333 332 333 334 335 334 336 339 340 339 340 339 338 337 337 337 337 335 334 334 334 333 332 333 332 333 332 332 331 327 326 325 325 327 326 325 325 324 324 325 324 320 319 319 319 319 321 327 329 330 331 330 329 329 328 327 327 327 327 327 327 327 327 327 328 327 323 324 325 324 323 320 319
341 341 341 341 341 341 341 341 340 339 337 335 333 333 333 332 331 332 333 337 336 336 337 338 337 337 337 337 337 335 335 334 334 334 334 333 333 334 332 331 329 324 322 322 325 327 325 324 324 324 322 322 321 319 319 318 318 318 319 326 329 329 329 329 329 329 327 326 327 327 327 327 326 327 327 328 329 328 325 324 324 323 322 321 319
341 341 341 342 342 341 340 340 340 341 340 339 337 335 333 332 331 331 332 333 333 332 334 336 337 337 337 336 336 335 335 334 334 335 335 333 333 334 333 331 326 322 321 321 325 326 325 324 323 323 322 321 321 322 323 322 320 318 319 326 329 329 329 328 329 328 327 327 328 327 327 327 326 326 325 326 328 327 325 324 324 322 322 321 319
335 337 341 342 341 340 339 339 339 339 340 341 340 338 335 334 332 332 332 332 333 333 332 334 336 337 337 337 336 335 335 335 335 336 334 334 333 333 334 332 326 321 320 321 325 326 325 324 323 322 321 322 324 325 327 326 322 320 323 328 329 330 330 329 328 327 327 326 328 328 327 327 325 325 324 324 326 325 324 324 324 322 322 321 321
326 332 338 340 339 338 338 337 337 338 338 339 340 339 337 336 334 335 335 333 334 335 333 334 336 336 337 337 336 335 336 336 335 335 335 334 334 334 335 333 327 322 321 321 323 324 323 323 323 321 320 323 325 327 328 327 326 325 326 328 329 329 329 330 329 327 327 327 328 328 327 327 325 324 324 324 325 324 323 324 325 324 322 320 321
322 327 332 336 336 336 335 335 336 337 336 337 339 339 339 337 337 337 337 336 336 337 336 335 335 335 335 336 336 336 336 336 335 335 335 335 334 334 335 334 329 323 321 321 322 323 322 323 324 323 322 324 326 327 328 328 327 327 328 328 329 329 329 330 329 327 327 328 328 328 327 327 326 324 323 323 323 324 324 324 324 324 324 322 320
322 323 325 327 330 332 333 335 335 334 333 336 338 338 339 338 338 338 337 336 337 337 336 336 335 335 334 334 335 335 335 335 335 335 334 334 334 335 335 334 331 326 323 322 323 323 322 323 324 324 324 325 327 327 328 328 329 329 329 329 329 329 329 330 329 328 328 328 328 328 328 327 327 324 323 323 323 324 326 325 324 323 324 323 320
320 321 321 322 323 325 331 334 331 328 328 330 332 333 334 334 335 336 336 336 336 336 336 335 335 335 335 335 335 335 335 335 335 335 334 334 334 334 335 335 332 328 324 325 326 325 325 325 325 326 327 327 327 327 328 330 330 330 330 329 329 329 329 329 329 328 328 328 329 328 328 328 328 325 323 323 324 325 327 327 327 326 324 323 321
319 319 320 320 321 322 327 331 329 326 326 325 326 326 326 326 328 330 331 331 331 333 335 335 334 334 335 335 335 335 335 335 335 335 334 334 334 334 334 334 333 330 327 327 329 329 329 329 329 330 331 330 329 329 329 331 331 331 330 330 329 329 330 330 329 328 328 328 328 329 329 329 328 327 325 324 324 325 326 327 327 326 325 323 323
318 318 319 319 319 321 324 329 328 326 325 324 324 323 323 323 323 324 324 323 323 326 330 333 332 330 331 332 333 333 334 335 335 334 334 334 334 334 334 334 334 332 330 329 330 331 331 331 331 331 331 331 331 330 331 331 331 332 331 330 329 329 330 330 329 328 328 328 329 329 329 329 329 329 327 325 325 325 325 326 326 325 324 323 323
317 317 318 318 318 320 322 325 326 325 325 325 323 323 323 322 321 323 323 322 321 321 324 328 327 325 325 326 327 329 331 334 335 334 333 333 334 334 334 334 334 333 332 332 332 331 330 330 330 331 330 331 331 331 331 332 332 332 331 330 329 330 329 329 329 328 328 329 328 329 329 328 329 329 328 327 326 326 325 326 326 325 324 324 323
317 317 318 318 318 319 320 321 321 323 324 323 322 321 321 320 320 322 324 323 322 322 322 324 325 324 324 324 324 325 327 330 333 332 333 333 333 333 333 333 334 334 334 333 332 332 331 329 328 329 329 331 331 331 331 332 332 332 330 329 328 329 329 329 329 329 329 329 329 329 328 329 329 330 329 328 327 327 326 325 326 325 324 324 324
316 317 317 318 318 318 319 320 319 320 322 320 319 319 319 319 320 322 324 323 321 321 322 324 327 327 327 326 325 324 323 325 328 329 330 332 333 331 330 332 333 334 334 333 332 333 333 331 329 329 329 330 331 331 332 332 331 330 328 327 328 329 329 328 329 329 329 329 329 329 329 329 329 330 329 328 328 327 327 326 325 325 325 325 325
316 316 316 317 317 317 318 318 318 318 318 317 316 317 318 320 321 322 322 321 320 321 322 325 327 327 326 326 326 327 326 327 328 327 327 329 330 329 328 330 331 332 333 333 333 333 333 332 331 331 330 331 331 332 332 332 332 329 327 326 327 328 328 327 327 328 328 329 330 329 330 329 329 330 330 329 329 329 327 326 325 325 325 325 325
316 316 316 316 315 316 317 317 317 316 315 314 315 317 317 317 319 319 320 320 321 323 323 325 326 325 324 324 323 324 325 327 327 326 326 326 326 325 325 327 329 331 332 332 332 331 331 332 331 331 331 331 332 332 333 333 332 330 328 326 325 325 326 325 326 325 326 328 329 330 330 330 330 330 330 330 330 329 328 327 326 325 325 325 325
317 316 316 316 314 314 316 316 315 315 313 313 316 317 316 316 316 317 320 321 322 323 324 325 324 323 322 322 321 320 322 324 324 324 325 325 325 325 325 325 326 329 331 331 331 330 330 331 330 330 331 331 332 332 332 333 334 332 330 328 327 326 325 325 325 324 325 326 329 331 331 330 330 330 330 330 330 330 329 328 327 326 325 325 325
316 316 315 314 311 311 314 316 315 315 313 315 316 317 316 316 316 318 319 320 321 322 323 323 322 322 322 321 320 319 319 320 322 322 322 324 324 325 325 325 326 328 327 326 327 329 329 329 329 330 332 331 331 331 330 331 332 332 332 331 329 328 328 328 327 325 325 327 329 330 331 330 330 330 331 331 330 330 330 329 328 326 326 326 325
316 316 315 314 309 309 312 314 315 315 314 315 317 317 316 315 314 316 318 318 319 319 319 319 318 319 321 319 318 317 318 318 320 320 320 322 323 323 324 326 326 326 325 325 326 326 327 327 328 328 329 329 330 331 331 331 331 329 330 330 331 331 330 330 329 328 326 327 330 331 331 330 330 329 330 331 331 330 330 330 329 328 327 326 326
317 316 315 312 308 308 311 313 315 316 316 316 317 317 316 315 312 313 315 316 316 315 313 314 314 316 318 318 318 318 318 318 319 320 320 321 322 322 323 324 325 324 325 325 324 324 324 326 327 327 327 327 328 328 329 330 330 329 328 329 332 333 333 331 329 330 328 327 328 330 330 329 329 329 330 331 330 330 330 330 329 329 328 327 326
316 316 315 311 307 308 311 314 316 317 317 317 318 316 315 315 312 312 315 314 313 312 311 313 314 315 316 317 319 318 316 317 318 319 320 321 322 322 323 323 323 323 323 323 323 322 322 323 325 327 327 327 327 327 327 328 328 328 328 329 329 330 334 332 327 328 328 327 327 327 327 327 328 328 329 329 329 330 330 330 330 329 329 328 327
316 316 315 310 306 308 312 315 317 317 317 318 318 315 313 315 313 314 316 313 311 312 312 314 315 316 317 318 317 314 312 314 317 318 319 320 321 322 322 322 322 322 322 322 322 321 321 321 322 323 325 327 328 327 328 328 327 326 327 329 329 330 333 330 327 329 328 326 326 326 325 325 325 326 326 327 328 328 328 328 329 329 329 329 328
316 315 314 310 306 308 312 315 317 317 317 318 317 314 312 313 312 314 316 313 312 313 312 312 313 314 316 317 315 311 312 314 316 318 318 318 319 320 320 320 320 321 321 321 321 321 321 320 320 320 321 323 325 327 328 327 326 327 327 329 329 330 331 329 328 332 330 328 328 326 326 325 325 325 324 325 325 326 327 327 328 328 328 329 328
315 315 315 310 306 308 312 314 316 316 317 318 318 315 312 312 312 312 313 313 312 312 310 311 311 312 314 314 312 312 314 314 314 315 316 317 318 318 318 318 318 319 320 320 320 319 319 319 319 318 319 319 321 323 324 324 325 326 327 327 328 328 329 329 329 331 331 330 329 327 328 327 327 327 325 325 325 324 325 325 326 327 327 327 328
315 315 315 311 307 309 311 314 315 316 317 318 318 316 313 311 312 312 312 313 312 311 310 310 310 311 311 310 310 311 313 313 312 312 313 315 316 315 315 315 316 317 317 318 318 318 318 318 318 318 318 318 318 318 319 320 322 323 324 325 326 327 328 328 328 329 330 331 329 329 329 328 328 328 327 327 326 326 326 325 325 326 326 326 326
315 315 315 312 309 309 311 313 314 315 318 319 317 316 313 312 311 311 312 313 313 312 311 311 310 309 308 308 308 309 311 312 312 310 309 310 311 310 309 309 310 311 312 313 313 315 315 316 316 316 316 315 315 315 316 317 318 318 320 322 323 325 327 327 327 328 329 330 329 329 329 329 329 329 328 328 328 328 327 326 326 325 325 325 325
315 315 315 313 311 310 311 313 313 314 318 319 315 314 313 312 312 311 311 312 314 315 314 313 312 309 307 307 307 308 309 310 311 310 308 307 306 306 306 305 306 306 307 308 308 309 311 312 313 313 312 312 311 312 313 314 315 316 317 318 320 322 324 326 327 327 328 329 329 329 328 328 329 329 328 328 328 328 328 328 327 326 326 325 325
315 315 315 314 312 312 312 313 312 313 318 318 314 313 313 312 312 311 310 312 314 316 315 314 314 311 308 306 307 307 309 310 311 311 309 308 308 307 307 307 306 306 306 307 308 310 311 312 312 311 310 309 309 309 310 311 312 313 314 316 317 318 320 322 323 324 326 328 328 328 328 328 328 328 328 328 328 328 328 328 328 328 327 326 326
Wind_Speed
17 16 13 14 14 14 14 14 14 15 16 15 15 15 15 15 15 15 15 15 16 16 17 18 19 19 20 22 23 23 23 23 23 22 21 20 20 19 19 18 17 16 16 17 17 17 17 16 15 15 15 16 17 17 17 17 18 19 20 22 23 22 22 23 23 21 19 17 17 18 16 15 16 17 16 15 15 15 16 17 18 19 19 18 16
21 17 15 14 14 14 14 14 14 15 15 15 15 15 15 15 15 15 14 15 15 15 16 17 18 18 19 21 22 22 22 22 22 21 20 19 18 18 18 18 17 16 16 17 16 16 16 16 15 15 15 16 17 18 17 18 19 20 21 22 23 22 23 23 23 22 19 18 17 16 14 13 15 17 17 15 14 14 15 15 17 19 18 17 16
21 17 15 13 14 14 14 14 14 15 15 15 15 15 15 14 14 14 14 14 14 15 15 16 17 17 18 19 19 20 20 20 20 19 18 18 18 17 18 17 17 17 17 17 16 16 15 16 16 15 15 15 17 18 18 19 20 20 21 21 22 23 22 22 22 21 19 18 17 15 15 15 16 16 16 15 14 14 15 15 15 16 16 16 16
21 18 15 13 13 13 14 14 14 15 15 15 15 14 14 14 14 14 14 14 14 15 15 15 16 16 17 18 18 18 18 18 18 18 17 17 17 17 17 17 17 17 17 17 17 16 15 16 16 16 16 16 17 18 19 20 21 21 20 20 21 21 20 20 21 20 19 18 17 17 18 17 16 16 16 15 15 14 14 15 14 14 15 15 16
21 17 15 13 13 13 13 14 15 15 15 15 14 14 13 13 14 13 13 13 13 14 15 15 15 15 16 17 17 16 17 17 16 16 16 16 16 16 16 17 16 16 16 16 16 16 16 17 17 17 16 17 18 20 21 22 21 20 19 19 20 19 19 20 20 19 18 17 17 18 18 16 16 15 15 15 15 15 14 14 14 14 14 14 15
20 17 15 14 13 13 13 13 15 15 16 15 14 14 13 12 13 13 13 13 13 13 14 15 15 15 15 16 16 16 16 16 16 15 15 15 15 15 15 16 15 15 16 16 16 16 17 18 18 17 17 18 20 21 22 23 22 20 20 20 19 19 19 18 17 18 17 17 18 18 18 17 17 15 13 13 15 14 14 13 13 13 13 12 13
18 17 15 14 13 12 13 13 14 15 16 15 15 14 14 13 12 13 13 13 13 13 13 13 14 14 14 14 15 15 15 15 15 15 15 14 14 14 14 15 15 14 15 16 17 16 16 18 19 18 18 19 20 21 23 24 23 23 22 21 20 19 19 18 17 17 17 18 18 18 18 18 17 14 12 12 14 14 13 12 12 12 12 12 11
17 16 15 14 13 13 13 12 14 15 15 15 15 15 14 13 12 13 14 14 13 13 13 13 13 13 13 13 14 14 14 14 14 15 16 15 15 15 14 15 14 13 14 16 18 17 16 17 19 19 19 19 20 21 22 24 24 24 23 21 19 18 18 18 18 17 17 17 18 17 16 17 16 15 13 12 12 12 13 12 11 11 11 11 10
16 15 15 14 13 13 13 13 14 15 15 14 15 15 14 14 13 13 14 14 14 13 13 13 12 12 12 13 13 13 13 13 13 14 15 15 15 15 14 14 13 12 12 15 18 18 17 17 19 20 19 18 19 20 22 24 24 23 23 20 18 17 16 16 16 16 15 16 16 16 16 17 16 15 13 11 11 11 12 12 11 10 10 10 10
14 14 14 13 13 14 13 14 15 15 14 14 14 14 14 14 13 13 14 15 15 14 13 13 12 11 11 12 12 12 13 13 13 14 14 14 14 14 13 13 12 12 12 13 17 18 18 19 20 20 18 17 18 19 22 24 23 22 21 18 16 14 14 13 14 15 15 14 14 15 16 16 16 14 13 11 9 10 11 11 11 10 9 9 11
13 14 14 13 14 14 14 14 14 15 14 14 14 13 13 13 14 14 14 14 15 14 13 13 12 12 11 11 11 12 12 13 14 14 14 13 13 13 12 12 11 11 11 13 16 17 19 21 23 22 19 18 18 20 22 23 21 19 17 14 11 10 11 12 13 15 15 14 13 13 14 14 14 12 11 10 8 9 11 11 10 10 8 9 11
13 14 13 13 14 14 15 14 14 14 13 13 13 13 13 13 14 14 15 14 15 14 13 13 12 12 11 11 11 12 12 12 13 14 14 13 13 12 12 12 12 10 10 12 14 16 18 21 23 22 20 18 18 19 19 19 17 15 13 10 7 8 10 11 13 14 14 13 12 12 12 11 11 11 10 9 9 10 11 10 10 10 9 9 10
15 15 14 14 14 14 14 14 14 13 12 12 13 13 13 14 14 14 16 15 15 15 13 13 13 13 12 11 11 12 12 12 12 13 14 13 13 12 12 12 12 11 10 11 13 15 17 21 22 21 19 17 17 16 16 16 14 12 9 7 6 9 11 11 13 13 13 12 11 10 10 9 10 10 9 8 10 10 9 9 9 9 9 8 9
16 15 15 14 14 14 14 14 13 12 12 12 13 14 13 14 14 14 16 16 16 15 14 13 13 13 12 12 12 12 12 12 12 12 13 13 12 12 12 12 12 11 10 10 13 14 15 18 19 19 18 17 15 14 14 13 11 9 8 7 7 9 11 12 13 12 12 11 10 9 9 9 10 10 9 9 10 10 8 7 8 9 9 9 9
17 15 15 15 15 14 14 13 12 12 12 12 13 14 15 14 14 15 16 18 17 16 14 13 13 13 12 12 12 13 13 12 12 12 12 12 12 11 11 12 11 11 11 10 11 13 13 15 16 17 17 16 15 13 12 11 10 9 7 9 10 11 12 12 12 11 11 11 10 9 8 9 10 10 9 10 9 9 8 7 8 8 8 8 8
17 15 16 16 16 15 14 13 12 11 10 11 12 14 15 14 15 15 16 18 17 16 14 13 13 12 12 12 12 13 13 12 12 11 11 11 11 11 11 11 11 11 10 10 10 12 12 13 13 14 15 16 15 13 12 11 10 8 7 8 11 14 15 12 11 11 10 10 9 8 8 8 9 9 9 8 8 8 8 7 7 7 7 7 7
15 15 16 16 16 16 15 13 12 11 9 9 10 13 14 14 15 15 16 18 17 15 14 14 13 12 12 12 12 13 13 12 12 11 10 10 10 10 10 11 11 10 10 9 9 11 12 12 12 12 13 14 15 13 12 11 9 7 6 8 11 14 16 13 10 10 9 9 8 7 7 7 8 9 9 8 8 7 7 6 7 7 6 6 7
15 14 15 15 16 15 14 13 12 11 10 10 10 12 13 14 14 15 17 17 17 16 14 14 12 12 12 11 11 12 12 12 12 11 10 10 10 10 10 10 10 10 9 8 8 10 12 13 12 11 11 13 15 14 12 10 7 6 6 7 12 14 15 14 11 9 9 8 7 6 6 6 7 8 8 8 7 6 6 6 6 7 6 6 6
15 15 14 14 15 14 13 13 12 11 11 11 11 12 13 13 14 15 17 16 16 15 14 14 13 13 12 11 11 11 12 12 12 12 11 10 10 10 10 10 10 9 9 9 8 9 11 13 13 11 10 12 13 13 12 9 6 6 6 6 12 15 16 15 12 10 9 7 6 5 5 5 6 7 7 7 7 7 7 6 6 6 5 5 5
16 15 14 13 13 14 13 12 11 11 11 11 12 12 12 12 13 15 16 16 15 15 15 14 13 13 12 11 11 11 11 11 12 12 12 11 10 10 10 10 9 9 8 8 9 9 10 11 13 14 11 11 12 13 11 7 5 6 6 6 11 15 16 15 13 11 9 8 6 5 5 4 5 6 7 7 8 7 6 6 5 4 4 5 5
17 16 14 13 12 13 13 12 11 11 11 10 11 12 12 12 12 14 14 14 15 15 15 15 14 13 12 11 11 11 11 11 12 12 12 11 10 10 9 10 9 9 8 8 9 9 10 10 12 14 13 11 11 13 11 7 6 6 6 6 10 14 16 15 13 11 10 8 6 5 5 4 5 5 5 6 7 7 7 6 5 3 4 4 5
18 17 15 14 13 13 12 12 12 11 11 10 11 12 12 12 12 12 12 13 15 15 15 16 15 14 12 12 11 11 11 12 12 12 12 11 10 10 10 10 10 9 8 8 9 9 10 11 11 14 15 12 11 12 11 8 7 7 7 6 10 14 14 14 12 11 10 8 6 5 4 4 4 4 3 5 6 7 8 7 5 3 4 4 5
18 18 16 15 13 13 12 12 12 12 11 11 12 12 12 12 12 11 10 12 14 15 16 16 16 15 13 12 12 11 11 12 12 12 12 11 10 10 10 11 10 8 8 8 9 10 10 12 13 13 14 13 11 12 12 9 7 8 8 7 10 14 14 13 12 10 9 7 6 5 4 4 4 4 3 4 6 7 7 7 5 5 4 4 5
18 17 17 15 14 13 12 12 13 13 13 12 12 12 12 12 12 11 11 12 12 13 15 16 15 15 13 12 12 11 11 11 12 12 11 11 11 11 11 11 10 8 8 8 9 10 11 14 14 14 14 14 13 11 11 10 8 8 9 8 9 13 14 13 12 10 8 6 6 4 4 4 4 4 3 4 7 6 7 8 6 5 4 3 4
18 17 17 17 15 13 13 13 12 13 13 13 12 12 12 12 12 12 12 13 12 12 13 14 14 14 13 13 13 12 12 12 12 11 11 11 11 12 12 12 10 9 8 8 10 11 12 14 14 14 14 14 13 11 10 10 8 8 10 9 8 11 13 13 11 10 8 6 5 4 3 3 4 5 4 5 8 6 7 9 7 5 4 3 3
18 18 18 17 16 14 13 13 12 12 13 13 12 12 12 12 12 13 13 13 13 13 12 13 14 14 14 13 13 13 13 12 12 11 11 11 12 12 13 12 11 9 9 9 10 12 13 14 14 14 13 13 12 10 8 9 8 8 11 10 8 9 11 13 11 10 9 6 5 3 3 3 4 5 5 6 9 7 7 8 7 6 4 3 3
20 19 19 18 17 15 13 12 12 12 12 12 13 13 13 12 12 13 13 13 13 13 13 13 13 14 13 13 14 14 14 13 12 11 12 12 12 12 13 12 11 9 9 9 10 12 13 13 14 13 11 11 10 8 7 8 8 8 11 11 8 7 8 11 12 11 10 8 6 4 3 3 4 5 5 6 9 8 6 7 7 5 5 4 3
20 19 19 19 17 15 13 12 11 11 10 11 12 13 13 13 14 13 13 13 13 14 13 13 13 13 13 13 14 14 14 13 12 12 12 13 13 14 14 13 11 9 9 9 10 11 12 12 13 12 11 11 9 8 6 6 8 9 11 11 8 6 6 8 11 12 11 9 8 6 5 4 4 5 5 6 8 8 6 6 6 6 5 4 4
20 19 18 18 17 15 14 13 12 11 10 10 11 12 13 14 14 14 13 13 13 13 12 12 12 12 13 13 13 13 13 13 13 13 13 14 15 16 15 13 12 10 10 10 10 11 11 11 11 12 12 11 10 8 7 6 7 9 10 9 9 8 6 7 10 13 12 11 9 7 6 5 5 5 6 6 7 7 6 6 7 6 6 5 5
21 19 18 17 16 15 14 12 11 11 10 10 10 11 12 13 14 14 13 13 13 12 11 11 11 12 12 13 14 13 13 13 14 14 15 16 16 17 16 15 15 13 12 11 11 11 11 11 11 12 12 11 10 8 7 6 7 8 9 9 9 9 8 7 9 12 13 13 11 9 7 7 7 7 7 7 7 7 7 7 6 6 6 6 6
21 20 18 17 16 15 14 12 12 11 11 11 11 11 11 12 12 13 12 11 11 11 11 11 11 11 12 13 14 14 14 14 15 15 15 16 17 18 18 18 18 16 15 13 12 11 11 12 12 12 12 11 9 7 7 7 8 9 10 11 11 10 10 9 10 12 14 15 13 11 9 8 8 8 8 8 8 8 8 8 7 6 6 7 6
20 20 18 16 15 14 14 14 14 12 12 12 11 10 9 9 9 10 10 10 10 10 10 11 11 11 12 13 14 14 15 16 16 16 15 16 17 18 19 20 19 18 17 15 13 12 12 12 12 12 11 11 11 11 10 11 11 12 12 13 14 13 12 11 11 13 14 15 15 13 11 10 9 10 10 10 9 9 9 9 8 7 7 7 5
19 18 17 15 14 13 14 15 15 14 13 13 12 11 10 8 8 7 7 8 9 11 11 10 11 11 11 12 13 13 14 15 15 15 14 14 15 17 19 20 19 18 18 17 15 14 13 12 12 12 11 11 12 13 13 14 14 14 14 16 17 17 16 14 14 14 15 16 16 15 13 11 11 11 12 11 10 10 11 11 10 9 8 7 6
20 18 17 15 14 13 14 15 15 15 14 14 13 13 12 10 9 8 7 5 5 7 9 10 9 9 9 9 8 7 9 10 12 12 12 12 13 14 17 19 20 19 18 17 16 16 15 13 13 12 12 12 13 14 15 16 16 16 17 18 20 20 18 17 17 16 16 16 16 16 15 13 12 12 13 13 12 12 12 13 12 11 10 8 7
21 19 17 16 15 14 14 15 15 15 15 14 14 13 11 9 7 7 8 7 6 5 6 7 6 5 6 7 7 6 6 6 8 11 11 11 11 13 14 15 17 19 20 18 17 17 17 16 15 14 13 13 13 14 15 16 18 18 19 20 22 22 20 19 19 19 17 18 18 18 17 15 14 14 14 14 13 13 13 14 15 13 11 9 9
23 21 19 17 16 15 16 16 15 16 17 16 14 13 11 9 7 8 8 7 6 5 6 6 5 4 3 5 7 9 9 5 5 7 9 10 12 13 10 9 12 17 20 20 19 18 18 17 17 16 15 14 13 13 14 15 17 17 18 20 23 23 22 20 20 20 19 19 19 19 18 17 16 15 16 16 15 14 14 15 16 15 13 11 11
23 22 21 19 18 18 17 17 17 17 17 16 15 13 11 9 9 9 8 6 4 5 7 7 6 6 5 6 4 5 9 7 5 6 6 6 8 8 6 9 12 12 14 19 21 21 19 18 18 17 16 14 12 12 12 12 14 14 16 19 23 24 24 22 20 19 19 20 21 20 20 18 18 17 18 17 17 16 15 15 17 17 15 14 14
24 23 21 20 19 19 19 19 19 18 17 17 16 14 12 11 11 10 7 5 5 5 7 8 6 6 5 5 5 2 4 4 3 4 4 4 5 4 4 9 10 10 12 16 19 19 19 20 19 17 16 15 13 12 11 9 9 10 15 20 21 23 23 23 21 20 20 21 21 22 20 19 19 19 19 19 19 18 17 17 18 18 17 16 16
25 23 21 20 19 20 21 20 20 19 18 17 17 17 14 12 12 10 8 7 7 7 9 8 7 6 5 5 3 2 2 2 1 1 2 2 3 4 6 9 7 9 13 14 14 14 15 17 17 14 14 14 12 13 11 8 6 6 11 16 17 18 19 20 21 20 20 21 22 23 21 20 20 21 21 20 20 20 19 19 19 19 19 18 18
26 24 22 21 19 21 22 21 20 19 19 19 20 18 15 13 12 11 10 10 9 9 9 9 7 6 4 3 2 1 2 2 1 1 3 3 4 4 2 7 7 6 10 9 7 9 12 13 12 10 14 16 14 14 11 8 7 5 6 10 13 14 15 17 18 18 19 21 23 24 23 21 21 22 22 22 22 22 21 21 21 20 19 19 19
26 25 24 22 20 22 23 23 22 21 21 21 21 20 17 14 13 12 12 11 10 9 9 8 6 5 3 2 2 2 3 3 2 1 2 2 4 4 3 1 2 3 4 3 2 4 8 7 6 6 10 14 14 14 12 11 10 7 6 6 10 12 13 14 15 17 18 21 24 25 25 23 23 23 23 23 24 24 24 23 22 22 21 21 20
28 27 25 24 22 23 24 25 24 23 22 21 21 20 18 15 14 13 13 12 10 7 7 6 5 5 3 2 2 1 2 2 2 1 1 2 3 3 4 4 5 6 5 7 8 4 3 4 2 2 5 6 9 11 11 10 8 5 4 5 6 9 12 14 15 16 18 21 25 27 26 25 25 24 24 24 25 26 26 25 25 24 24 23 21
30 29 26 25 25 25 25 26 26 25 23 20 19 19 18 15 13 12 12 11 9 6 6 5 5 5 5 3 2 1 2 2 1 2 2 3 3 4 4 5 6 7 7 9 10 9 10 12 8 2 3 3 4 6 7 8 7 3 2 3 3 3 6 10 13 16 18 21 25 27 27 27 26 25 24 25 26 27 27 27 27 27 26 25 24
29 30 29 29 29 28 27 28 28 25 23 20 17 17 18 16 13 12 12 10 9 8 7 6 6 5 5 4 2 2 4 4 2 2 4 4 4 5 5 6 6 5 5 7 9 11 12 12 10 6 6 7 5 4 5 5 6 4 1 1 1 1 2 4 6 12 16 20 25 28 28 27 27 25 25 25 26 26 26 27 28 29 29 28 26
30 32 31 32 31 30 29 30 28 26 23 20 17 17 19 18 16 14 12 11 10 10 9 7 6 6 5 4 2 1 3 4 4 3 4 4 5 5 5 5 5 4 3 5 7 8 10 11 11 8 8 8 7 6 8 10 8 5 2 2 1 1 2 3 6 6 9 14 19 24 27 27 26 25 25 26 26 25 25 26 27 29 30 30 29
31 32 33 33 32 31 31 30 29 27 24 21 19 19 20 20 19 17 15 13 13 12 10 8 7 6 5 3 2 2 3 3 4 4 3 3 3 3 2 2 3 3 2 3 4 6 6 8 9 9 10 9 8 7 9 11 9 6 5 3 4 4 4 5 5 3 5 8 10 14 19 22 24 25 26 27 27 26 26 26 27 28 28 30 30
30 31 33 34 34 32 32 31 30 28 25 23 21 21 21 21 19 18 17 16 15 13 10 8 6 5 5 4 3 4 5 4 3 3 3 3 2 2 1 1 0 2 1 1 2 5 6 6 7 8 9 10 10 10 9 9 8 7 8 7 7 8 8 7 4 2 4 6 8 10 11 12 14 17 21 25 26 27 27 27 27 27 27 28 29
29 31 34 35 35 33 32 32 31 29 26 24 23 23 23 23 20 17 16 15 14 12 10 9 8 7 6 5 5 5 4 4 5 4 3 2 2 1 0 0 1 2 2 2 2 3 4 5 5 6 7 9 10 10 9 10 9 9 9 9 9 10 10 9 8 6 3 4 8 12 15 14 13 14 15 17 21 23 25 27 28 28 28 28 29
30 33 35 35 35 34 33 32 30 29 27 25 25 25 25 24 21 18 17 15 13 12 12 11 10 9 7 7 7 6 5 4 4 4 5 5 4 4 4 4 5 5 5 4 4 3 4 4 5 5 7 8 9 8 8 9 9 9 9 9 8 10 10 10 9 8 6 5 5 6 11 16 17 19 18 15 15 17 20 23 26 28 29 30 30
30 32 33 34 35 35 34 33 31 30 28 26 27 27 27 25 22 19 17 17 15 14 14 14 13 11 9 9 7 6 6 5 3 3 4 4 5 5 5 5 5 6 5 6 6 6 6 6 7 7 8 8 8 8 7 8 8 8 8 9 9 10 8 7 7 8 7 7 6 4 7 9 11 19 23 20 18 19 20 21 22 25 28 30 31
27 29 31 33 36 36 36 34 32 31 29 28 28 29 29 26 23 20 19 18 18 17 16 16 15 14 12 10 8 7 6 5 4 3 2 2 2 2 2 3 5 6 7 8 8 8 8 8 9 9 9 9 9 8 8 7 8 8 8 8 9 9 7 6 9 12 9 6 6 5 7 10 10 16 22 23 23 24 24 24 23 24 25 28 31
Wind_Direction
184 177 168 158 153 156 160 158 153 145 139 137 136 137 136 137 134 129 125 121 118 117 116 112 112 112 114 116 116 116 117 118 118 118 116 116 116 117 118 118 119 120 121 120 119 121 123 125 124 125 124 124 124 123 122 121 122 121 119 118 115 114 112 107 106 108 110 107 102 102 103 104 104 100 95 94 93 92 92 92 93 91 86 83 81
178 175 168 159 154 154 158 157 153 148 142 139 137 139 139 139 137 132 129 123 119 119 118 114 114 115 116 118 119 118 117 118 119 119 118 117 117 117 118 118 119 118 118 116 116 117 123 126 124 123 123 124 123 122 122 123 125 124 123 123 121 118 115 112 110 108 108 110 107 107 104 101 102 99 95 94 91 90 90 89 90 90 88 86 84
172 171 168 159 154 153 157 157 153 150 144 141 139 142 142 142 140 136 134 127 122 121 122 117 117 119 120 121 122 121 120 121 121 121 120 118 117 117 118 118 118 116 114 113 113 116 121 126 124 123 125 124 123 121 121 125 126 125 127 128 126 123 121 120 120 116 113 115 113 108 101 97 99 99 97 96 91 89 87 86 87 88 89 88 86
171 168 165 159 154 152 155 155 152 151 148 144 142 143 144 145 143 141 138 132 127 125 127 122 120 124 124 125 125 124 122 122 122 122 122 120 118 118 118 118 118 117 116 114 111 112 119 125 123 123 126 125 124 122 121 125 127 127 128 130 129 126 124 122 125 125 122 122 117 109 106 106 102 98 98 96 92 89 86 85 85 86 87 85 83
170 167 164 160 154 151 152 154 152 151 150 147 144 144 145 147 146 145 141 136 130 128 130 127 124 126 128 128 127 127 124 123 123 124 123 123 122 121 120 119 119 119 119 118 111 107 117 123 122 123 125 125 124 122 123 125 126 126 126 129 128 125 123 122 126 128 127 124 118 114 115 113 104 100 101 100 97 93 89 87 87 87 87 85 85
170 166 162 160 154 149 149 151 150 150 150 148 147 145 145 147 148 148 145 140 134 131 132 130 126 127 130 130 130 127 124 125 125 125 125 125 125 125 123 121 119 121 121 121 113 108 117 122 122 123 124 125 124 123 123 124 123 120 120 123 124 120 120 121 125 129 131 127 121 118 115 110 105 104 105 104 101 96 92 91 90 87 85 85 87
171 163 160 158 151 146 146 149 148 148 149 149 148 147 147 147 151 151 149 146 140 135 134 132 128 128 131 131 131 128 126 126 128 129 129 128 126 124 122 120 119 120 121 122 116 111 118 122 124 122 124 126 125 125 123 125 123 118 116 117 119 117 114 114 119 123 126 126 122 118 116 117 115 109 108 106 101 99 98 95 93 90 88 86 86
168 160 156 154 148 144 143 145 146 147 148 150 151 149 150 150 156 157 154 151 145 140 137 136 131 130 133 134 134 133 132 128 131 135 135 133 128 125 122 120 118 118 119 123 118 114 120 123 126 124 125 128 126 127 126 127 125 120 117 114 115 114 111 110 113 118 121 121 119 117 116 116 113 109 109 107 105 105 100 95 95 93 93 91 87
163 156 153 152 147 144 143 145 143 145 149 151 154 152 152 154 159 160 158 156 151 146 142 143 138 135 135 137 139 137 135 131 133 136 138 138 133 130 126 121 120 119 116 122 120 116 123 125 128 127 125 129 130 130 131 132 129 125 122 118 115 114 113 111 113 116 117 119 120 119 115 114 116 118 118 114 112 114 108 104 99 92 92 92 87
156 151 151 152 148 146 144 145 142 144 149 152 156 156 157 157 159 161 162 161 157 152 148 149 145 140 138 138 142 141 138 134 134 135 139 140 138 135 127 124 122 120 115 119 122 119 126 130 133 133 127 130 135 137 138 137 133 130 127 122 118 117 120 121 119 117 116 118 123 125 124 129 131 129 124 119 117 117 112 106 99 93 92 93 90
149 151 153 153 148 147 146 143 142 143 148 152 156 159 163 159 160 163 163 164 161 158 155 154 150 145 143 139 141 144 143 139 139 138 141 143 141 136 129 128 123 120 115 118 124 121 128 134 137 140 137 136 140 141 142 142 139 137 133 127 126 131 136 137 132 122 119 121 127 134 137 141 137 128 124 125 122 114 107 103 102 97 90 91 93
148 153 152 152 147 148 147 141 139 141 146 152 157 162 168 165 163 166 163 166 165 162 159 156 152 149 146 143 143 147 149 146 145 141 142 145 143 139 134 134 128 124 119 119 127 124 127 137 139 142 145 143 142 142 144 146 143 141 138 137 146 158 160 152 143 132 126 126 130 137 144 145 134 126 128 129 121 113 111 111 108 100 92 90 90
147 155 154 150 146 148 145 138 137 139 145 150 160 164 170 169 167 171 166 166 167 164 162 158 155 153 150 148 149 151 154 151 149 147 145 145 143 140 136 134 130 128 125 121 130 129 127 138 143 143 148 148 147 147 146 146 144 144 139 137 154 164 170 161 151 143 134 133 133 138 144 142 133 131 137 130 119 115 118 120 110 102 97 94 91
151 156 155 149 143 144 141 137 139 141 147 152 160 165 170 171 167 173 170 166 167 165 164 162 159 157 153 152 155 156 159 156 154 152 149 147 144 142 139 135 132 129 130 127 131 135 131 138 147 148 154 158 155 156 153 151 148 146 131 126 149 159 166 162 157 152 142 140 136 140 144 141 139 135 133 126 124 124 124 125 115 107 104 100 98
159 155 153 149 142 142 140 140 145 147 152 153 159 162 168 172 167 171 173 169 169 168 164 165 162 159 158 156 159 159 161 160 160 158 154 151 148 148 143 137 134 131 133 134 133 140 141 141 149 151 159 168 166 166 161 156 151 141 120 123 147 158 161 161 158 157 148 147 143 144 143 144 145 133 131 131 133 132 125 124 117 111 109 104 103
163 157 152 149 144 143 142 144 150 152 151 150 156 159 164 169 167 169 173 172 171 169 165 167 166 163 163 159 160 161 161 163 166 166 160 158 157 154 147 139 136 134 135 138 134 138 148 149 152 151 158 171 171 168 162 156 147 132 109 126 154 164 165 160 157 161 154 150 147 145 144 145 142 133 136 138 137 135 126 121 117 112 111 109 106
162 160 154 149 146 145 147 149 151 152 149 145 152 156 160 164 165 167 172 173 171 169 167 169 169 166 163 160 161 162 163 167 170 172 168 165 163 158 149 144 140 136 137 139 136 136 149 154 158 155 152 168 173 166 159 153 142 119 100 131 162 171 171 165 158 163 158 151 149 145 143 141 141 139 141 142 140 139 129 120 116 112 111 114 109
164 162 157 149 147 147 152 155 154 153 149 143 145 150 155 159 162 166 172 173 170 170 169 170 171 166 163 161 164 164 165 169 173 176 176 172 169 165 157 153 147 141 141 142 142 141 151 157 163 163 152 163 172 165 159 151 135 105 95 136 165 173 176 174 164 161 160 154 149 144 135 137 145 145 150 153 148 141 131 125 121 119 117 115 109
165 164 159 152 148 149 153 157 157 155 150 145 144 146 149 154 157 164 172 172 171 172 170 173 172 166 166 164 166 166 166 171 175 178 180 179 174 170 165 161 154 147 147 147 150 149 155 162 167 170 158 162 170 166 162 153 131 100 94 136 164 171 177 180 173 164 166 160 151 140 125 134 147 148 158 156 144 139 137 134 129 127 121 115 111
162 164 162 158 153 152 155 157 158 156 153 147 145 145 146 152 157 164 172 173 174 175 172 176 175 169 168 167 168 167 168 175 178 179 181 183 179 174 172 170 164 156 152 153 157 156 161 167 170 174 166 163 169 170 169 158 135 111 102 132 158 168 175 181 180 171 169 161 150 140 129 132 135 147 163 157 148 148 148 139 131 134 129 117 112
160 166 165 165 163 159 160 161 160 159 158 152 150 147 148 156 163 168 173 177 180 179 176 177 177 174 171 170 171 170 174 181 182 182 185 185 181 177 177 178 174 165 159 161 165 164 166 169 172 177 175 167 169 176 178 165 146 127 116 135 156 166 174 180 181 176 171 162 150 141 137 139 137 152 172 171 167 160 150 141 142 143 126 121 114
161 166 167 170 170 168 166 166 166 165 163 159 157 156 157 162 167 171 176 184 184 182 183 178 176 177 177 176 175 176 181 186 188 187 188 187 183 182 183 183 179 171 167 169 175 175 173 171 172 178 180 175 169 178 182 169 155 141 128 140 160 166 173 180 182 177 173 164 153 147 142 148 157 174 190 185 186 176 157 155 174 157 128 139 131
164 166 169 172 173 171 170 171 170 170 172 168 164 163 165 166 166 168 174 183 184 184 185 181 178 178 181 183 182 184 187 191 193 192 190 186 184 186 186 185 178 173 176 178 181 184 179 173 172 176 183 184 174 175 181 174 159 151 140 138 163 172 174 180 184 181 177 168 158 154 152 163 181 194 204 185 192 196 166 160 178 160 153 163 142
166 168 169 171 173 171 172 176 175 176 177 176 171 167 168 169 166 165 167 172 181 185 182 181 181 180 185 191 189 189 191 195 197 194 193 188 186 187 184 186 180 171 179 186 184 184 181 176 176 180 186 189 183 180 181 181 169 158 153 141 159 174 177 181 187 186 180 174 165 157 164 183 197 197 206 185 187 198 170 162 166 160 175 178 150
159 163 166 169 171 170 171 173 176 179 182 182 177 172 170 173 171 166 165 167 174 180 179 182 182 184 189 195 194 193 193 196 199 195 195 194 192 190 184 185 182 175 179 186 184 182 182 180 181 187 191 193 191 188 184 185 178 165 163 152 153 171 178 184 191 192 187 180 174 167 178 201 206 199 200 182 181 191 182 173 169 173 195 190 159
156 158 164 167 168 168 168 167 170 177 186 188 183 182 179 181 181 173 170 171 174 175 178 184 186 188 192 197 196 196 198 199 202 199 200 200 197 196 190 188 184 180 181 183 183 183 184 183 186 193 196 198 197 193 182 182 181 168 167 161 150 163 177 188 196 199 195 190 185 179 186 207 211 206 204 189 183 190 195 186 180 188 202 195 177
156 157 161 165 167 168 167 165 167 176 187 190 188 190 189 187 186 182 181 178 179 179 181 186 189 192 194 199 200 201 203 203 204 204 206 207 204 204 199 194 189 184 184 183 181 182 184 185 191 200 201 198 198 196 181 176 178 167 167 167 159 160 172 188 199 204 203 200 196 197 199 209 216 216 218 201 192 197 207 202 197 199 199 201 207
148 152 160 164 167 168 168 167 168 175 182 185 189 192 191 190 189 188 189 187 186 186 188 190 191 194 197 202 204 205 205 203 207 211 214 213 212 213 205 198 196 192 188 186 182 179 181 188 195 201 200 198 199 201 196 183 175 162 164 170 173 179 182 193 202 206 211 209 203 209 210 215 222 222 226 212 206 215 224 214 201 203 211 206 206
138 147 158 163 167 167 168 170 170 173 173 177 189 193 191 194 194 190 191 193 192 190 191 194 194 196 200 204 205 208 210 210 214 218 220 219 218 217 209 201 197 199 197 191 186 178 177 186 197 201 201 204 206 210 217 209 187 170 171 181 188 196 202 207 211 211 215 215 211 216 217 221 227 227 230 223 219 227 233 221 204 206 217 210 203
133 139 151 159 164 164 166 169 168 168 167 172 184 191 193 198 199 194 191 194 196 196 196 199 202 201 201 206 208 211 215 218 220 222 221 224 226 222 216 209 201 200 202 199 193 185 180 183 193 201 204 209 211 215 227 228 210 192 190 196 204 213 216 221 222 217 217 217 216 220 222 226 228 230 234 233 231 229 231 230 228 217 206 218 232
133 133 139 148 155 160 162 160 159 161 163 167 176 184 193 201 208 206 199 196 198 203 203 205 209 207 205 207 211 214 219 223 225 226 224 225 226 221 215 210 207 205 204 204 201 195 190 192 198 206 212 218 223 232 245 253 243 225 217 210 212 220 223 225 224 218 218 218 219 222 226 230 226 229 233 237 237 231 230 231 236 227 211 235 251
140 136 134 140 147 154 156 154 154 155 154 155 161 167 178 190 201 209 212 210 209 213 212 213 215 212 210 210 213 217 222 227 228 228 228 224 220 218 215 211 210 210 206 205 209 208 202 202 207 216 227 232 240 249 258 269 265 251 241 228 222 221 219 220 219 217 217 218 221 222 227 233 228 226 230 235 236 229 229 228 226 224 224 242 238
147 143 141 142 145 151 155 156 154 154 151 146 144 144 146 149 152 168 197 212 217 222 218 215 215 208 204 205 209 215 221 226 229 229 226 221 217 216 218 216 214 213 210 207 209 214 213 213 216 223 236 243 247 251 259 268 267 258 248 237 229 222 220 221 217 217 219 219 222 223 226 234 232 226 227 231 233 229 228 229 229 232 233 237 229
154 153 152 148 146 151 157 159 157 157 152 147 144 141 139 139 138 141 149 165 187 211 213 209 210 203 198 198 195 208 220 223 227 227 223 220 216 213 216 218 216 214 215 213 213 219 219 219 222 228 238 246 252 254 260 266 267 264 254 241 231 223 223 226 221 221 225 223 223 224 226 231 232 231 229 228 229 230 229 231 234 241 244 239 233
161 160 159 153 148 151 157 159 161 162 158 153 149 147 149 152 157 152 142 140 137 156 188 194 199 199 203 201 198 214 220 222 229 231 231 226 218 216 215 217 219 217 218 217 217 223 224 224 228 233 240 244 251 256 260 266 269 267 258 242 230 222 224 229 225 223 228 228 226 227 229 229 230 232 233 230 228 228 229 231 233 240 245 239 238
167 164 162 157 153 153 158 158 157 162 161 156 153 154 159 165 173 165 149 143 136 135 146 149 155 157 156 177 203 226 229 237 254 245 243 237 231 228 216 210 221 224 225 223 222 226 228 229 230 233 240 246 252 257 260 270 272 265 255 240 228 223 225 228 227 226 229 231 230 231 232 231 231 233 235 235 231 229 229 230 233 239 241 236 239
172 169 165 162 160 160 165 165 159 160 158 156 157 156 157 163 166 160 156 154 148 149 148 136 129 131 121 124 156 227 232 237 262 257 257 262 256 248 219 208 217 224 228 227 228 233 233 234 236 234 239 250 258 262 265 273 275 264 249 238 229 227 227 227 228 231 233 234 235 235 236 235 234 235 236 237 236 233 232 231 233 237 240 237 238
175 173 172 171 169 169 172 169 163 160 158 158 157 148 140 145 151 155 159 158 151 154 155 147 136 132 120 115 113 122 205 215 246 262 275 293 305 319 263 234 228 229 231 229 229 233 235 238 243 243 244 252 258 264 269 275 282 266 245 237 232 229 227 227 230 234 236 237 239 238 239 240 238 238 238 238 239 237 235 234 234 235 238 239 239
175 174 174 174 173 173 172 168 164 161 159 159 156 148 139 138 142 148 147 138 138 146 154 154 147 142 128 123 125 125 169 155 113 51 13 319 337 348 277 261 254 237 235 239 237 238 243 242 244 250 250 253 258 260 263 274 291 278 243 233 231 228 225 227 232 236 238 239 241 241 241 243 243 242 240 240 240 239 237 236 235 235 236 239 240
176 174 172 173 172 173 173 170 165 162 158 156 154 152 147 144 143 144 139 131 134 143 154 157 152 151 149 148 163 211 214 199 155 87 56 62 59 56 266 259 267 262 249 254 252 240 245 240 241 260 255 249 255 254 255 276 293 294 258 234 230 231 231 234 235 237 240 240 240 239 238 243 246 246 245 242 241 241 240 238 236 236 238 238 239
175 175 172 172 173 174 176 172 167 164 158 155 154 153 152 154 152 148 140 135 141 149 155 160 159 160 168 198 227 230 215 207 184 148 108 90 81 83 75 304 304 330 286 296 357 239 243 239 239 268 258 249 254 251 252 280 295 298 296 263 241 238 238 239 238 238 241 242 239 237 237 241 244 246 247 246 244 244 243 241 239 238 239 239 239
175 177 176 173 173 175 177 174 169 167 162 160 161 159 160 162 160 156 148 142 146 157 161 161 164 168 177 216 238 219 204 200 179 143 134 114 99 97 81 64 63 62 55 51 54 55 32 41 41 276 260 256 256 249 248 266 279 286 313 313 278 253 245 243 243 242 241 240 238 238 240 241 243 246 248 247 247 248 247 245 243 241 241 241 240
177 178 178 174 172 173 175 173 171 169 167 169 171 168 168 168 165 161 156 149 149 163 167 153 149 157 163 176 192 214 222 212 148 94 102 108 101 98 97 89 75 65 58 57 58 54 53 57 60 32 320 328 284 264 260 258 260 270 307 303 298 286 260 250 247 246 244 241 237 238 243 245 246 247 247 248 249 250 250 249 247 245 244 244 243
178 179 178 174 173 173 174 173 173 174 172 176 181 178 174 172 170 166 160 156 155 166 171 156 150 154 158 171 197 249 249 232 194 121 110 107 108 109 109 107 89 70 52 51 53 48 49 56 59 45 11 6 350 339 337 310 294 297 293 252 308 2 273 280 273 255 249 244 238 237 242 246 250 250 249 249 251 252 253 251 250 250 248 246 245
183 182 180 176 175 176 176 175 176 177 178 181 186 183 176 173 170 167 164 159 159 171 180 178 173 170 173 185 205 280 262 216 184 150 135 120 118 122 116 107 94 78 47 40 48 47 43 46 50 42 26 16 2 358 3 3 352 326 293 250 296 281 243 339 342 282 258 252 244 240 241 245 249 252 253 253 254 254 253 253 253 253 252 250 248
188 184 182 179 178 179 179 179 180 181 182 185 188 185 179 175 171 169 170 167 169 177 184 185 181 178 180 186 169 102 92 144 166 162 159 149 142 143 131 100 83 73 44 22 35 41 37 38 41 38 34 31 25 22 11 9 13 7 353 312 286 277 280 328 344 314 295 281 259 247 246 249 254 255 256 257 257 256 255 254 255 256 256 253 251
191 185 183 183 182 182 182 183 184 183 183 187 192 190 183 181 181 181 183 183 184 184 185 186 185 185 185 185 171 132 104 100 128 154 178 192 201 212 228 252 37 76 67 358 15 33 36 36 34 32 32 31 35 41 28 15 18 14 6 353 328 312 294 287 270 277 317 300 285 281 270 264 266 265 262 261 261 261 260 258 258 258 258 255 254
190 186 186 186 186 184 184 186 187 186 187 190 196 195 189 188 189 191 193 196 197 189 185 190 192 196 196 191 180 155 131 112 102 101 125 158 187 203 174 89 84 83 78 68 32 18 21 25 23 21 20 22 29 38 36 31 27 10 357 355 345 331 314 295 276 268 275 284 292 292 286 285 287 284 279 275 272 268 267 266 264 261 259 258 256
191 190 188 188 188 187 188 190 192 191 190 194 198 197 195 194 193 196 199 202 203 195 190 198 201 201 201 197 187 167 155 144 120 103 104 112 114 99 81 74 72 71 71 70 60 38 22 18 16 12 10 16 21 24 27 29 30 20 7 360 350 339 330 319 306 287 271 278 288 289 293 300 297 288 285 286 283 279 276 274 272 267 264 262 261
193 191 189 190 190 190 192 195 196 196 194 196 198 197 197 197 197 200 203 203 201 198 198 203 206 208 207 202 196 181 169 163 151 134 123 117 110 96 81 70 56 49 49 47 43 34 26 19 13 7 3 6 6 4 10 12 15 19 15 11 7 360 343 327 324 312 288 273 274 279 294 302 299 290 290 290 286 286 286 284 282 276 269 265 263
192 192 191 192 193 194 195 197 199 199 198 198 199 199 199 200 202 204 206 205 202 202 203 203 206 210 211 207 205 201 192 181 177 174 167 149 128 105 73 49 28 17 13 15 16 13 8 0 355 352 349 353 354 351 350 348 352 0 6 11 12 6 352 333 330 325 314 290 282 288 289 286 281 283 290 294 293 291 288 285 285 281 276 272 267